Torna al catalogo

COSMOS 2270

AttivoMilitarePO
NORAD 23001·PAYLOAD·🇷🇺 Russia

Lanciato Feb 12, 1994 da Plesetsk Cosmodrome

Loading…

Prossimi Passaggi (prossime 24 ore)

TLE

AggiornatoSource: Space-Track

Epoca: Sep 14, 2026, 17:25 UTC

1 23001U 94011C   26257.72612082  .00000001  00000-0 -54372-4 0  9998
2 23001  82.5681 256.5745 0006986 346.0920 187.3270 12.62937351501952

Traccia COSMOS 2270 in tempo reale con AllMySat

Download on the App Store